,,PA_Meas_PMT16A,,PR_Meas_QMR101_102,,RH_Meas_QMH101,,SR_Meas_QMS101,,TA_Meas_QMH101,,GenWind,,GenWind,
time,status,PA,status,PR,status,RH,status,SR,status,TA,status,DirAvg,status,SpdAvg,
2011-11-27, 00:00:04,VALID,915.312,VALID,0,VALID,97.3968,VALID,0,VALID,20.6959,VALID,215,VALID,0.480469,
2011-11-27, 00:01:04,VALID,915.311,VALID,0,VALID,97.3968,VALID,0,VALID,20.6975,VALID,215,VALID,0.133594,
2011-11-27, 00:02:04,VALID,915.278,VALID,0,VALID,97.412,VALID,0,VALID,20.6764,VALID,215,VALID,0.260938,
2011-11-27, 00:03:04,VALID,915.259,VALID,0,VALID,97.4349,VALID,0,VALID,20.678,VALID,215,VALID,0.349609,
2011-11-27, 00:04:04,VALID,915.234,VALID,0,VALID,97.4654,VALID,0,VALID,20.6569,VALID,215,VALID,0.389062,
2011-11-27, 00:05:04,VALID,915.195,VALID,0,VALID,97.4654,VALID,0,VALID,20.6585,VALID,215,VALID,0.344141,
2011-11-27, 00:06:04,VALID,915.195,VALID,0,VALID,97.4806,VALID,0,VALID,20.6569,VALID,215,VALID,0.160938,
2011-11-27, 00:07:04,VALID,915.236,VALID,0,VALID,97.4882,VALID,0,VALID,20.678,VALID,215,VALID,0.585938,
2011-11-27, 00:08:04,VALID,915.211,VALID,0,VALID,97.473,VALID,0,VALID,20.6585,VALID,215,VALID,0.685547,
2011-11-27, 00:09:04,VALID,915.242,VALID,0,VALID,97.4882,VALID,0,VALID,20.6585,VALID,215,VALID,0.629297,
2011-11-27, 00:10:04,VALID,915.25,VALID,0,VALID,97.4882,VALID,0,VALID,20.639,VALID,170,VALID,1.05664,
2011-11-27, 00:11:04,VALID,915.22,VALID,0,VALID,97.4959,VALID,0,VALID,20.639,VALID,187,VALID,1.05156,
2011-11-27, 00:12:04,VALID,915.227,VALID,0,VALID,97.4959,VALID,0,VALID,20.6194,VALID,182,VALID,0.874219,
2011-11-27, 00:13:04,VALID,915.22,VALID,0,VALID,97.4882,VALID,0,VALID,20.639,VALID,181,VALID,1.10117,
2011-11-27, 00:14:04,VALID,915.203,VALID,0,VALID,97.4654,VALID,0,VALID,20.6194,VALID,180,VALID,0.928125,
2011-11-27, 00:15:04,VALID,915.186,VALID,0,VALID,97.4882,VALID,0,VALID,20.6194,VALID,164,VALID,1.66523,
2011-11-27, 00:16:04,VALID,915.199,VALID,0,VALID,97.473,VALID,0,VALID,20.6194,VALID,171,VALID,1.02852,
2011-11-27, 00:17:04,VALID,915.196,VALID,0,VALID,97.4959,VALID,0,VALID,20.6179,VALID,171,VALID,1.15,
2011-11-27, 00:18:04,VALID,915.192,VALID,0,VALID,97.5111,VALID,0,VALID,20.6569,VALID,165,VALID,1.6125,
2011-11-27, 00:19:04,VALID,915.212,VALID,0,VALID,97.4501,VALID,0,VALID,20.6374,VALID,158,VALID,1.14844,
2011-11-27, 00:20:04,VALID,915.204,VALID,0,VALID,97.4577,VALID,0,VALID,20.6569,VALID,152,VALID,1.01953,
2011-11-27, 00:21:04,VALID,915.184,VALID,0,VALID,97.4273,VALID,0,VALID,20.6163,VALID,167,VALID,1.76523,
2011-11-27, 00:22:04,VALID,915.201,VALID,0,VALID,97.4196,VALID,0,VALID,20.6374,VALID,175,VALID,0.754297,
2011-11-27, 00:23:04,VALID,915.167,VALID,0,VALID,97.3891,VALID,0,VALID,20.6179,VALID,145,VALID,1.11836,
2011-11-27, 00:24:04,VALID,915.179,VALID,0,VALID,97.3891,VALID,0,VALID,20.6374,VALID,155,VALID,0.933984,
2011-11-27, 00:25:04,VALID,915.167,VALID,0,VALID,97.4425,VALID,0,VALID,20.6374,VALID,175,VALID,0.769922,
2011-11-27, 00:26:04,VALID,915.157,VALID,0,VALID,97.3968,VALID,0.107441,VALID,20.6179,VALID,139,VALID,1.68477,
2011-11-27, 00:27:04,VALID,915.143,VALID,0,VALID,97.3891,VALID,0,VALID,20.6374,VALID,116,VALID,1.66484,
2011-11-27, 00:28:04,VALID,915.136,VALID,0,VALID,97.3739,VALID,0,VALID,20.6374,VALID,115,VALID,1.23125,
2011-11-27, 00:29:04,VALID,915.084,VALID,0,VALID,97.351,VALID,0,VALID,20.6194,VALID,116,VALID,0.688672,
2011-11-27, 00:30:04,VALID,915.08,VALID,0,VALID,97.3586,VALID,0,VALID,20.5999,VALID,79,VALID,0.496484,
2011-11-27, 00:31:04,VALID,915.042,VALID,0,VALID,97.351,VALID,0,VALID,20.582,VALID,122,VALID,0.896484,
2011-11-27, 00:32:04,VALID,915.015,VALID,0,VALID,97.351,VALID,0,VALID,20.5804,VALID,122,VALID,0.949609,
2011-11-27, 00:33:04,VALID,915.004,VALID,0,VALID,97.4044,VALID,0,VALID,20.5399,VALID,122,VALID,1.16172,
2011-11-27, 00:34:04,VALID,914.967,VALID,0,VALID,97.412,VALID,0,VALID,20.5609,VALID,123,VALID,0.753906,
2011-11-27, 00:35:04,VALID,914.906,VALID,0,VALID,97.4273,VALID,0,VALID,20.5009,VALID,165,VALID,0.991016,
2011-11-27, 00:36:04,VALID,914.905,VALID,0,VALID,97.412,VALID,0,VALID,20.5219,VALID,157,VALID,0.539844,
2011-11-27, 00:37:04,VALID,914.872,VALID,0,VALID,97.4044,VALID,0,VALID,20.5414,VALID,166,VALID,0.801953,
2011-11-27, 00:38:04,VALID,914.884,VALID,0,VALID,97.4196,VALID,0,VALID,20.5009,VALID,160,VALID,0.809375,
2011-11-27, 00:39:04,VALID,914.882,VALID,0,VALID,97.4501,VALID,0,VALID,20.5009,VALID,154,VALID,0.885938,
2011-11-27, 00:40:04,VALID,914.874,VALID,0,VALID,97.4501,VALID,0,VALID,20.5009,VALID,175,VALID,1.38086,
2011-11-27, 00:41:04,VALID,914.869,VALID,0,VALID,97.4425,VALID,0,VALID,20.5219,VALID,181,VALID,0.98125,
2011-11-27, 00:42:04,VALID,914.874,VALID,0,VALID,97.4425,VALID,0,VALID,20.5414,VALID,180,VALID,0.490234,
2011-11-27, 00:43:04,VALID,914.855,VALID,0,VALID,97.4349,VALID,0,VALID,20.5414,VALID,179,VALID,0.948828,
2011-11-27, 00:44:04,VALID,914.837,VALID,0,VALID,97.4501,VALID,0,VALID,20.5414,VALID,154,VALID,0.771484,
2011-11-27, 00:45:04,VALID,914.838,VALID,0,VALID,97.4425,VALID,0,VALID,20.5414,VALID,152,VALID,0.326953,
2011-11-27, 00:46:04,VALID,914.865,VALID,0,VALID,97.4501,VALID,0,VALID,20.5219,VALID,152,VALID,0.620703,
2011-11-27, 00:47:04,VALID,914.857,VALID,0,VALID,97.4425,VALID,0,VALID,20.5024,VALID,152,VALID,0.00585938,
2011-11-27, 00:48:04,VALID,914.872,VALID,0,VALID,97.4654,VALID,0,VALID,20.543,VALID,165,VALID,0.00585938,
2011-11-27, 00:49:04,VALID,914.84,VALID,0,VALID,97.473,VALID,0,VALID,20.5219,VALID,165,VALID,0.144141,
2011-11-27, 00:50:04,VALID,914.842,VALID,0,VALID,97.4501,VALID,0,VALID,20.5009,VALID,165,VALID,0.214062,
2011-11-27, 00:51:04,VALID,914.833,VALID,0,VALID,97.4501,VALID,0,VALID,20.5219,VALID,165,VALID,0.102344,
2011-11-27, 00:52:04,VALID,914.82,VALID,0,VALID,97.4501,VALID,0,VALID,20.4829,VALID,165,VALID,0.508984,
2011-11-27, 00:53:04,VALID,914.824,VALID,0,VALID,97.4273,VALID,0,VALID,20.4829,VALID,165,VALID,0.211328,
2011-11-27, 00:54:04,VALID,914.793,VALID,0,VALID,97.473,VALID,0,VALID,20.5024,VALID,163,VALID,0.399219,
2011-11-27, 00:55:04,VALID,914.78,VALID,0,VALID,97.4501,VALID,0,VALID,20.5024,VALID,154,VALID,0.223438,
2011-11-27, 00:56:04,VALID,914.761,VALID,0,VALID,97.4273,VALID,0,VALID,20.4829,VALID,154,VALID,0.118359,
2011-11-27, 00:57:04,VALID,914.743,VALID,0,VALID,97.4425,VALID,0,VALID,20.4829,VALID,154,VALID,0.071875,
2011-11-27, 00:58:04,VALID,914.707,VALID,0,VALID,97.4501,VALID,0,VALID,20.4829,VALID,154,VALID,0.623438,
2011-11-27, 00:59:04,VALID,914.71,VALID,0,VALID,97.4501,VALID,0,VALID,20.4829,VALID,154,VALID,0.607031,
2011-11-27, 01:00:04,VALID,914.664,VALID,0,VALID,97.4349,VALID,0,VALID,20.504,VALID,154,VALID,0.49375,
2011-11-27, 01:01:04,VALID,914.63,VALID,0,VALID,97.4654,VALID,0,VALID,20.4829,VALID,154,VALID,0.177344,
2011-11-27, 01:02:04,VALID,914.626,VALID,0,VALID,97.4273,VALID,0,VALID,20.4813,VALID,154,VALID,0,
2011-11-27, 01:03:04,VALID,914.619,VALID,0,VALID,97.3891,VALID,0,VALID,20.4213,VALID,154,VALID,0.892578,
2011-11-27, 01:04:04,VALID,914.639,VALID,0,VALID,97.3663,VALID,0,VALID,20.4228,VALID,154,VALID,0.702734,
2011-11-27, 01:05:04,VALID,914.627,VALID,0,VALID,97.3434,VALID,0,VALID,20.3838,VALID,154,VALID,1.11719,
2011-11-27, 01:06:04,VALID,914.627,VALID,0,VALID,97.3663,VALID,0,VALID,20.3643,VALID,154,VALID,1.26094,
2011-11-27, 01:07:04,VALID,914.591,VALID,0,VALID,97.3815,VALID,0,VALID,20.3659,VALID,154,VALID,1.06562,
2011-11-27, 01:08:04,VALID,914.564,VALID,0,VALID,97.3968,VALID,0,VALID,20.3464,VALID,154,VALID,0.865625,
2011-11-27, 01:09:04,VALID,914.565,VALID,0,VALID,97.4654,VALID,0,VALID,20.3464,VALID,79,VALID,0.942578,
2011-11-27, 01:10:04,VALID,914.544,VALID,0,VALID,97.4806,VALID,0,VALID,20.3058,VALID,79,VALID,0.995313,
2011-11-27, 01:11:04,VALID,914.544,VALID,0,VALID,97.5187,VALID,0,VALID,20.3269,VALID,79,VALID,0.970703,
2011-11-27, 01:12:04,VALID,914.529,VALID,0,VALID,97.5264,VALID,0,VALID,20.3284,VALID,79,VALID,0.421094,
2011-11-27, 01:13:04,VALID,914.485,VALID,0,VALID,97.5416,VALID,0,VALID,20.2879,VALID,83,VALID,0.364453,
2011-11-27, 01:14:04,VALID,914.482,VALID,0,VALID,97.5416,VALID,0,VALID,20.2879,VALID,111,VALID,0.824609,
2011-11-27, 01:15:04,VALID,914.443,VALID,0,VALID,97.5721,VALID,0,VALID,20.3089,VALID,90,VALID,0.608594,
2011-11-27, 01:16:04,VALID,914.43,VALID,0,VALID,97.5797,VALID,0,VALID,20.2684,VALID,120,VALID,0.876953,
2011-11-27, 01:17:04,VALID,914.422,VALID,0,VALID,97.5569,VALID,0,VALID,20.2489,VALID,106,VALID,0.737891,
2011-11-27, 01:18:04,VALID,914.409,VALID,0,VALID,97.5569,VALID,0,VALID,20.2489,VALID,106,VALID,1.06172,
2011-11-27, 01:19:04,VALID,914.353,VALID,0,VALID,97.5797,VALID,0,VALID,20.2504,VALID,119,VALID,1.26406,
2011-11-27, 01:20:04,VALID,914.352,VALID,0,VALID,97.5873,VALID,0,VALID,20.2699,VALID,142,VALID,1.18594,
2011-11-27, 01:21:04,VALID,914.341,VALID,0,VALID,97.5569,VALID,0,VALID,20.2699,VALID,130,VALID,0.978516,
2011-11-27, 01:22:04,VALID,914.344,VALID,0,VALID,97.5569,VALID,0,VALID,20.2684,VALID,140,VALID,0.763672,
2011-11-27, 01:23:04,VALID,914.328,VALID,0,VALID,97.5492,VALID,0,VALID,20.3315,VALID,134,VALID,0.505859,
2011-11-27, 01:24:04,VALID,914.344,VALID,0,VALID,97.534,VALID,0,VALID,20.2489,VALID,123,VALID,0.503516,
2011-11-27, 01:25:04,VALID,914.329,VALID,0,VALID,97.5264,VALID,0,VALID,20.2684,VALID,143,VALID,1.00508,
2011-11-27, 01:26:04,VALID,914.315,VALID,0,VALID,97.5492,VALID,0,VALID,20.2879,VALID,133,VALID,0.639844,
2011-11-27, 01:27:04,VALID,914.296,VALID,0,VALID,97.5416,VALID,0,VALID,20.2879,VALID,165,VALID,1.31562,
2011-11-27, 01:28:04,VALID,914.315,VALID,0,VALID,97.5645,VALID,0,VALID,20.3074,VALID,172,VALID,0.665625,
2011-11-27, 01:29:04,VALID,914.3,VALID,0,VALID,97.5645,VALID,0,VALID,20.2879,VALID,148,VALID,0.132031,
2011-11-27, 01:30:04,VALID,914.279,VALID,0,VALID,97.534,VALID,0,VALID,20.3074,VALID,132,VALID,0.844922,
2011-11-27, 01:31:04,VALID,914.243,VALID,0,VALID,97.5111,VALID,0,VALID,20.2879,VALID,127,VALID,0.752344,
2011-11-27, 01:32:04,VALID,914.205,VALID,0,VALID,97.5035,VALID,0,VALID,20.2684,VALID,127,VALID,0.658203,
2011-11-27, 01:33:04,VALID,914.204,VALID,0,VALID,97.5111,VALID,0,VALID,20.2668,VALID,127,VALID,0.65,
2011-11-27, 01:34:04,VALID,914.214,VALID,0,VALID,97.5416,VALID,0,VALID,20.2879,VALID,127,VALID,0.496875,
2011-11-27, 01:35:04,VALID,914.161,VALID,0,VALID,97.4806,VALID,0,VALID,20.2473,VALID,127,VALID,0.659375,
2011-11-27, 01:36:04,VALID,914.155,VALID,0,VALID,97.473,VALID,0,VALID,20.2278,VALID,127,VALID,0.717969,
2011-11-27, 01:37:04,VALID,914.146,VALID,0,VALID,97.5035,VALID,0,VALID,20.2278,VALID,127,VALID,0.576563,
2011-11-27, 01:38:04,VALID,914.146,VALID,0,VALID,97.473,VALID,0,VALID,20.2489,VALID,127,VALID,0.495313,
2011-11-27, 01:39:04,VALID,914.134,VALID,0,VALID,97.473,VALID,0,VALID,20.1888,VALID,127,VALID,0.480078,
2011-11-27, 01:40:04,VALID,914.115,VALID,0,VALID,97.4654,VALID,0,VALID,20.2098,VALID,127,VALID,0.728906,
2011-11-27, 01:41:04,VALID,914.069,VALID,0,VALID,97.4577,VALID,0,VALID,20.1498,VALID,127,VALID,0.612891,
2011-11-27, 01:42:04,VALID,914.054,VALID,0,VALID,97.4501,VALID,0,VALID,20.1513,VALID,127,VALID,0.827344,
2011-11-27, 01:43:04,VALID,914.034,VALID,0,VALID,97.4273,VALID,0,VALID,20.1513,VALID,127,VALID,0.773828,
2011-11-27, 01:44:04,VALID,914.006,VALID,0,VALID,97.5111,VALID,0,VALID,20.1318,VALID,128,VALID,0.404297,
2011-11-27, 01:45:04,VALID,913.994,VALID,0,VALID,97.4959,VALID,0,VALID,20.1123,VALID,128,VALID,0.241016,
2011-11-27, 01:46:04,VALID,913.971,VALID,0,VALID,97.5035,VALID,0,VALID,20.0913,VALID,127,VALID,0.586719,
2011-11-27, 01:47:04,VALID,914.006,VALID,0,VALID,97.534,VALID,0,VALID,20.0913,VALID,127,VALID,0.552344,
2011-11-27, 01:48:04,VALID,913.981,VALID,0,VALID,97.4882,VALID,0,VALID,20.0523,VALID,127,VALID,0.662109,
2011-11-27, 01:49:04,VALID,913.994,VALID,0,VALID,97.5111,VALID,0,VALID,20.0133,VALID,127,VALID,0.533594,
2011-11-27, 01:50:04,VALID,914.01,VALID,0,VALID,97.5035,VALID,0,VALID,20.0133,VALID,127,VALID,0.512891,
2011-11-27, 01:51:04,VALID,914.001,VALID,0,VALID,97.5416,VALID,0,VALID,19.9938,VALID,127,VALID,0.684375,
2011-11-27, 01:52:04,VALID,913.984,VALID,0,VALID,97.5492,VALID,0,VALID,19.9938,VALID,127,VALID,0.730469,
2011-11-27, 01:53:04,VALID,913.978,VALID,0,VALID,97.5797,VALID,0,VALID,19.9923,VALID,127,VALID,0.569141,
2011-11-27, 01:54:04,VALID,913.973,VALID,0,VALID,97.5797,VALID,0,VALID,20.0133,VALID,131,VALID,0.893359,
2011-11-27, 01:55:04,VALID,913.949,VALID,0,VALID,97.5645,VALID,0,VALID,19.9938,VALID,135,VALID,1.17656,
2011-11-27, 01:56:04,VALID,913.932,VALID,0,VALID,97.5873,VALID,0,VALID,19.9953,VALID,135,VALID,0.688672,
2011-11-27, 01:57:04,VALID,913.921,VALID,0,VALID,97.5797,VALID,0,VALID,19.9743,VALID,135,VALID,0.555469,
2011-11-27, 01:58:04,VALID,913.908,VALID,0,VALID,97.5492,VALID,0.107441,VALID,19.9548,VALID,135,VALID,0.304688,
2011-11-27, 01:59:04,VALID,913.913,VALID,0,VALID,97.595,VALID,0.107441,VALID,19.9563,VALID,135,VALID,0.699219,
2011-11-27, 02:00:04,VALID,913.919,VALID,0,VALID,97.6102,VALID,0,VALID,19.9953,VALID,163,VALID,1.04727,
2011-11-27, 02:01:04,VALID,913.904,VALID,0,VALID,97.6331,VALID,0.107441,VALID,19.9743,VALID,162,VALID,0.373437,
2011-11-27, 02:02:04,VALID,913.923,VALID,0,VALID,97.6483,VALID,0,VALID,19.9938,VALID,154,VALID,0.725,
2011-11-27, 02:03:04,VALID,913.899,VALID,0,VALID,97.6712,VALID,0,VALID,19.9938,VALID,157,VALID,0.577734,
2011-11-27, 02:04:04,VALID,913.886,VALID,0,VALID,97.6483,VALID,0,VALID,20.0133,VALID,152,VALID,0.825,
2011-11-27, 02:05:04,VALID,913.893,VALID,0,VALID,97.6178,VALID,0,VALID,20.0133,VALID,152,VALID,0.860547,
2011-11-27, 02:06:04,VALID,913.834,VALID,0,VALID,97.6102,VALID,0,VALID,19.9938,VALID,145,VALID,0.894922,
2011-11-27, 02:07:04,VALID,913.856,VALID,0,VALID,97.6178,VALID,0.107441,VALID,19.9938,VALID,138,VALID,0.444922,
2011-11-27, 02:08:04,VALID,913.834,VALID,0,VALID,97.6178,VALID,0.107441,VALID,20.0133,VALID,129,VALID,0.616406,
2011-11-27, 02:09:04,VALID,913.79,VALID,0,VALID,97.6331,VALID,0,VALID,20.0133,VALID,133,VALID,0.544531,
2011-11-27, 02:10:04,VALID,913.813,VALID,0,VALID,97.6102,VALID,0,VALID,20.0133,VALID,146,VALID,0.683594,
2011-11-27, 02:11:04,VALID,913.769,VALID,0,VALID,97.5873,VALID,0,VALID,20.0133,VALID,153,VALID,0.572656,
2011-11-27, 02:12:04,VALID,913.76,VALID,0,VALID,97.5721,VALID,0.107441,VALID,19.9938,VALID,115,VALID,0.852344,
2011-11-27, 02:13:04,VALID,913.777,VALID,0,VALID,97.5873,VALID,0,VALID,19.9728,VALID,147,VALID,0.917578,
2011-11-27, 02:14:04,VALID,913.745,VALID,0,VALID,97.5645,VALID,0.107441,VALID,20.0148,VALID,102,VALID,0.816016,
2011-11-27, 02:15:04,VALID,913.742,VALID,0,VALID,97.5645,VALID,0,VALID,19.9743,VALID,119,VALID,1.01836,
2011-11-27, 02:16:04,VALID,913.764,VALID,0,VALID,97.5492,VALID,0,VALID,19.9743,VALID,96,VALID,0.574609,
2011-11-27, 02:17:04,VALID,913.727,VALID,0,VALID,97.5416,VALID,0,VALID,19.9953,VALID,104,VALID,0.501953,
2011-11-27, 02:18:04,VALID,913.729,VALID,0,VALID,97.5492,VALID,0.107441,VALID,19.9968,VALID,96,VALID,0.583984,
2011-11-27, 02:19:04,VALID,913.741,VALID,0,VALID,97.5492,VALID,0.107441,VALID,19.9548,VALID,91,VALID,0.891797,
2011-11-27, 02:20:04,VALID,913.742,VALID,0,VALID,97.534,VALID,0.107441,VALID,19.9338,VALID,99,VALID,0.171875,
2011-11-27, 02:21:04,VALID,913.703,VALID,0,VALID,97.5111,VALID,0,VALID,19.9353,VALID,99,VALID,0.685547,
2011-11-27, 02:22:04,VALID,913.719,VALID,0,VALID,97.5187,VALID,0,VALID,19.9353,VALID,84,VALID,0.706641,
2011-11-27, 02:23:04,VALID,913.711,VALID,0,VALID,97.4882,VALID,0,VALID,19.8963,VALID,84,VALID,0.599609,
2011-11-27, 02:24:04,VALID,913.68,VALID,0,VALID,97.5111,VALID,0,VALID,19.8768,VALID,83,VALID,0.917188,
2011-11-27, 02:25:04,VALID,913.653,VALID,0,VALID,97.4959,VALID,0,VALID,19.8768,VALID,84,VALID,0.882813,
2011-11-27, 02:26:04,VALID,913.641,VALID,0,VALID,97.5187,VALID,0,VALID,19.8768,VALID,86,VALID,1.19961,
2011-11-27, 02:27:04,VALID,913.62,VALID,0,VALID,97.5492,VALID,0,VALID,19.9173,VALID,95,VALID,0.923828,
2011-11-27, 02:28:04,VALID,913.571,VALID,0,VALID,97.5721,VALID,0.107441,VALID,19.9368,VALID,95,VALID,0.688672,
2011-11-27, 02:29:04,VALID,913.578,VALID,0,VALID,97.5569,VALID,0,VALID,19.8963,VALID,96,VALID,0.855078,
2011-11-27, 02:30:04,VALID,913.537,VALID,0,VALID,97.5797,VALID,0,VALID,19.9158,VALID,95,VALID,0.809375,
2011-11-27, 02:31:04,VALID,913.522,VALID,0,VALID,97.5797,VALID,0,VALID,19.9563,VALID,95,VALID,0.698828,
2011-11-27, 02:32:04,VALID,913.469,VALID,0,VALID,97.6026,VALID,0,VALID,19.9548,VALID,95,VALID,1.21797,
2011-11-27, 02:33:04,VALID,913.443,VALID,0,VALID,97.6102,VALID,0,VALID,19.9938,VALID,95,VALID,1.25781,
2011-11-27, 02:34:04,VALID,913.433,VALID,0,VALID,97.5645,VALID,0,VALID,19.9728,VALID,96,VALID,0.8875,
2011-11-27, 02:35:04,VALID,913.429,VALID,0,VALID,97.5492,VALID,0,VALID,20.0553,VALID,96,VALID,0.575391,
2011-11-27, 02:36:04,VALID,913.406,VALID,0,VALID,97.534,VALID,0,VALID,20.0749,VALID,95,VALID,0.347656,
2011-11-27, 02:37:04,VALID,913.383,VALID,0,VALID,97.473,VALID,0,VALID,20.0133,VALID,96,VALID,0.668359,
2011-11-27, 02:38:04,VALID,913.383,VALID,0,VALID,97.4654,VALID,0,VALID,20.0133,VALID,96,VALID,0.129297,
2011-11-27, 02:39:04,VALID,913.377,VALID,0,VALID,97.4501,VALID,0.107441,VALID,19.9938,VALID,96,VALID,0.0332031,
2011-11-27, 02:40:04,VALID,913.402,VALID,0,VALID,97.3968,VALID,0,VALID,19.9953,VALID,96,VALID,0.801172,
2011-11-27, 02:41:04,VALID,913.396,VALID,0,VALID,97.3815,VALID,0,VALID,19.8963,VALID,96,VALID,1.08789,
2011-11-27, 02:42:04,VALID,913.411,VALID,0,VALID,97.4196,VALID,0.107441,VALID,19.9173,VALID,96,VALID,0.99375,
2011-11-27, 02:43:04,VALID,913.409,VALID,0,VALID,97.4425,VALID,0,VALID,19.8978,VALID,96,VALID,1.15586,
2011-11-27, 02:44:04,VALID,913.429,VALID,0,VALID,97.4806,VALID,0,VALID,19.8573,VALID,96,VALID,1.22031,
2011-11-27, 02:45:04,VALID,913.459,VALID,0,VALID,97.4882,VALID,0.107441,VALID,19.8363,VALID,95,VALID,1.16875,
2011-11-27, 02:46:04,VALID,913.462,VALID,0,VALID,97.4349,VALID,0,VALID,19.8183,VALID,79,VALID,1.0043,
2011-11-27, 02:47:04,VALID,913.456,VALID,0,VALID,97.5187,VALID,0,VALID,19.8198,VALID,87,VALID,1.0957,
2011-11-27, 02:48:04,VALID,913.463,VALID,0,VALID,97.5873,VALID,0,VALID,19.8378,VALID,88,VALID,1.08086,
2011-11-27, 02:49:04,VALID,913.479,VALID,0,VALID,97.595,VALID,0,VALID,19.8573,VALID,88,VALID,1.00898,
2011-11-27, 02:50:04,VALID,913.453,VALID,0,VALID,97.6255,VALID,0,VALID,19.9173,VALID,88,VALID,1.12852,
2011-11-27, 02:51:04,VALID,913.466,VALID,0,VALID,97.6255,VALID,0,VALID,19.8963,VALID,88,VALID,0.8875,
2011-11-27, 02:52:04,VALID,913.484,VALID,0,VALID,97.6026,VALID,0,VALID,19.9158,VALID,88,VALID,0.558984,
2011-11-27, 02:53:04,VALID,913.456,VALID,0,VALID,97.5721,VALID,0,VALID,19.9158,VALID,88,VALID,1.00625,
2011-11-27, 02:54:04,VALID,913.45,VALID,0,VALID,97.6026,VALID,0,VALID,19.9353,VALID,120,VALID,1.07969,
2011-11-27, 02:55:04,VALID,913.441,VALID,0,VALID,97.5797,VALID,0,VALID,19.9758,VALID,120,VALID,0.919922,
2011-11-27, 02:56:04,VALID,913.458,VALID,0,VALID,97.5645,VALID,0,VALID,19.9548,VALID,120,VALID,0.308203,
2011-11-27, 02:57:04,VALID,913.457,VALID,0,VALID,97.5645,VALID,0,VALID,19.9758,VALID,120,VALID,0.353906,
2011-11-27, 02:58:04,VALID,913.445,VALID,0,VALID,97.534,VALID,0,VALID,19.9548,VALID,120,VALID,0.455469,
2011-11-27, 02:59:04,VALID,913.456,VALID,0,VALID,97.4806,VALID,0,VALID,19.9563,VALID,120,VALID,0.744141,
2011-11-27, 03:00:04,VALID,913.446,VALID,0,VALID,97.473,VALID,0,VALID,19.9563,VALID,120,VALID,0.771094,
2011-11-27, 03:01:04,VALID,913.463,VALID,0,VALID,97.4654,VALID,0,VALID,19.9158,VALID,120,VALID,0.844922,
2011-11-27, 03:02:04,VALID,913.476,VALID,0,VALID,97.4882,VALID,0,VALID,19.9368,VALID,73,VALID,1.04922,
2011-11-27, 03:03:04,VALID,913.441,VALID,0,VALID,97.473,VALID,0,VALID,19.9353,VALID,73,VALID,0.561719,
2011-11-27, 03:04:04,VALID,913.456,VALID,0,VALID,97.4501,VALID,0,VALID,19.9548,VALID,73,VALID,0.464453,
2011-11-27, 03:05:04,VALID,913.482,VALID,0,VALID,97.4273,VALID,0,VALID,19.9968,VALID,73,VALID,0.452734,
2011-11-27, 03:06:04,VALID,913.466,VALID,0,VALID,97.412,VALID,0,VALID,19.9758,VALID,73,VALID,0.6625,
2011-11-27, 03:07:04,VALID,913.471,VALID,0,VALID,97.3815,VALID,0,VALID,19.9548,VALID,74,VALID,0.726953,
2011-11-27, 03:08:04,VALID,913.453,VALID,0,VALID,97.3968,VALID,0,VALID,19.9953,VALID,74,VALID,0.860547,
2011-11-27, 03:09:04,VALID,913.457,VALID,0,VALID,97.3663,VALID,0,VALID,20.0148,VALID,75,VALID,0.727344,
2011-11-27, 03:10:04,VALID,913.476,VALID,0,VALID,97.3586,VALID,0,VALID,20.0343,VALID,75,VALID,0.817187,
2011-11-27, 03:11:04,VALID,913.456,VALID,0,VALID,97.3205,VALID,0,VALID,20.0133,VALID,74,VALID,0.287109,
2011-11-27, 03:12:04,VALID,913.44,VALID,0,VALID,97.3358,VALID,0,VALID,19.9938,VALID,75,VALID,0.545313,
2011-11-27, 03:13:04,VALID,913.443,VALID,0,VALID,97.3129,VALID,0,VALID,20.0343,VALID,75,VALID,0.0933594,
2011-11-27, 03:14:04,VALID,913.423,VALID,0,VALID,97.29,VALID,0,VALID,20.0133,VALID,75,VALID,0,
2011-11-27, 03:15:04,VALID,913.48,VALID,0,VALID,97.2519,VALID,0,VALID,19.9953,VALID,75,VALID,0,
2011-11-27, 03:16:04,VALID,913.462,VALID,0,VALID,97.2138,VALID,0,VALID,19.9563,VALID,74,VALID,0,
2011-11-27, 03:17:04,VALID,913.471,VALID,0,VALID,97.2443,VALID,0,VALID,19.8948,VALID,75,VALID,0,
2011-11-27, 03:18:04,VALID,913.466,VALID,0,VALID,97.2595,VALID,0,VALID,19.8768,VALID,75,VALID,0,
2011-11-27, 03:19:04,VALID,913.462,VALID,0,VALID,97.3281,VALID,0,VALID,19.8978,VALID,75,VALID,0,
2011-11-27, 03:20:04,VALID,913.433,VALID,0,VALID,97.3891,VALID,0,VALID,19.9173,VALID,75,VALID,0,
2011-11-27, 03:21:04,VALID,913.451,VALID,0,VALID,97.3815,VALID,0,VALID,19.9173,VALID,75,VALID,0,
2011-11-27, 03:22:04,VALID,913.452,VALID,0,VALID,97.3358,VALID,0,VALID,19.8978,VALID,75,VALID,0,
2011-11-27, 03:23:04,VALID,913.462,VALID,0,VALID,97.3739,VALID,0,VALID,19.8768,VALID,75,VALID,0,
2011-11-27, 03:24:04,VALID,913.507,VALID,0,VALID,97.3586,VALID,0,VALID,19.8768,VALID,75,VALID,0.393359,
2011-11-27, 03:25:04,VALID,913.513,VALID,0,VALID,97.351,VALID,0,VALID,19.8978,VALID,126,VALID,0.577734,
2011-11-27, 03:26:04,VALID,913.495,VALID,0,VALID,97.3586,VALID,0,VALID,19.8363,VALID,126,VALID,0.502734,
2011-11-27, 03:27:05,VALID,913.5,VALID,0,VALID,97.3815,VALID,0,VALID,19.8573,VALID,126,VALID,0.105469,
2011-11-27, 03:28:05,VALID,913.512,VALID,0,VALID,97.3891,VALID,0,VALID,19.8573,VALID,126,VALID,0.422266,
2011-11-27, 03:29:05,VALID,913.505,VALID,0,VALID,97.3968,VALID,0,VALID,19.8573,VALID,126,VALID,0.545703,
2011-11-27, 03:30:05,VALID,913.518,VALID,0,VALID,97.4044,VALID,0,VALID,19.8783,VALID,126,VALID,0.0695312,
2011-11-27, 03:31:05,VALID,913.529,VALID,0,VALID,97.3815,VALID,0,VALID,19.8393,VALID,126,VALID,0,
2011-11-27, 03:32:05,VALID,913.534,VALID,0,VALID,97.3968,VALID,0,VALID,19.8393,VALID,126,VALID,0.233984,
2011-11-27, 03:33:05,VALID,913.519,VALID,0,VALID,97.3968,VALID,0,VALID,19.8393,VALID,126,VALID,0.126172,
2011-11-27, 03:34:05,VALID,913.525,VALID,0,VALID,97.4577,VALID,0,VALID,19.8588,VALID,126,VALID,0.714453,
2011-11-27, 03:35:05,VALID,913.512,VALID,0,VALID,97.473,VALID,0,VALID,19.8978,VALID,126,VALID,0.471484,
2011-11-27, 03:36:05,VALID,913.499,VALID,0,VALID,97.4806,VALID,0,VALID,19.8963,VALID,126,VALID,0.356641,
2011-11-27, 03:37:05,VALID,913.502,VALID,0,VALID,97.473,VALID,0,VALID,19.9563,VALID,126,VALID,0.190234,
2011-11-27, 03:38:05,VALID,913.478,VALID,0,VALID,97.4501,VALID,0,VALID,19.9158,VALID,126,VALID,0.296484,
2011-11-27, 03:39:05,VALID,913.49,VALID,0,VALID,97.4349,VALID,0,VALID,19.9563,VALID,126,VALID,0.231641,
2011-11-27, 03:40:05,VALID,913.499,VALID,0,VALID,97.412,VALID,0,VALID,19.9563,VALID,126,VALID,0,
2011-11-27, 03:41:05,VALID,913.484,VALID,0,VALID,97.3891,VALID,0,VALID,19.9173,VALID,126,VALID,0.189063,
2011-11-27, 03:42:05,VALID,913.505,VALID,0,VALID,97.351,VALID,0,VALID,19.8768,VALID,126,VALID,0.230469,
2011-11-27, 03:43:05,VALID,913.472,VALID,0,VALID,97.3358,VALID,0,VALID,19.8783,VALID,126,VALID,0.300781,
2011-11-27, 03:44:05,VALID,913.481,VALID,0,VALID,97.3358,VALID,0,VALID,19.8183,VALID,126,VALID,0,
2011-11-27, 03:45:05,VALID,913.502,VALID,0,VALID,97.2977,VALID,0,VALID,19.7598,VALID,126,VALID,0,